Regional Weather Roundup
Issued by NWS

Home | Current Version | Previous Version | Text Only | Print | Product List | Glossary On
Versions: 1 2 3 4 5 6 7 8 9 10 11 12 13 14 15 16 17 18 19 20 21 22 23 24 25 26 27 28 29 30 31 32 33 34 35 36 37 38 39 40 41 42 43 44 45 46 47 48 49 50
000
ASUS44 KLUB 030210
RWRTX
WEST TEXAS WEATHER ROUNDUP
NATIONAL WEATHER SERVICE LUBBOCK TX
800 PM CST MON MAR 02 2015

NOTE: "FAIR" INDICATES FEW OR NO CLOUDS BELOW 12,000 FEET WITH NO
SIGNIFICANT WEATHER AND/OR OBSTRUCTIONS TO VISIBILITY.

TXZ004-006>008-010-012-014-016-OKZ002-030300-
TEXAS PANHANDLE/OKLAHOMA PANHANDLE

CITY           SKY/WX    TMP DP  RH WIND       PRES   REMARKS
AMARILLO       CLOUDY    33  31  92 S17       29.98F WCI  22
BORGER         CLOUDY    37  30  75 S13       29.97F WCI  29
CANADIAN       MOCLDY    39  31  73 S12       29.99R WCI  32
DALHART        CLOUDY    36  33  89 S18       29.91F WCI  26
DUMAS          CLOUDY    33  31  93 S18       29.94R FOG     WCI  22
GUYMON         CLOUDY    37  31  78 S17       29.87F WCI  27
HEREFORD       CLOUDY    34  34  98 S14G21    29.99F FOG     WCI  25
PAMPA          CLOUDY    36  32  85 S12G21    29.97F WCI  28
PERRYTON         N/A     37  32  84 S17       29.92F WCI  27
$$

TXZ026-029-035-045-048-030300-
SOUTHERN PANHANDLE/SOUTH PLAINS/ROLLING PLAINS

CITY           SKY/WX    TMP DP  RH WIND       PRES   REMARKS
CHILDRESS      MOCLDY    38  32  79 S9        30.08F WCI  31
SEMINOLE       CLOUDY    35  35  98 S5        30.08F FOG     WCI  31
LUBBOCK        FOG       33  33 100 S13       30.04S VSB 1/2 WCI  24
PLAINVIEW      CLOUDY    35  34  96 S9        30.01F FOG     WCI  27
SNYDER         CLOUDY    35  34  98 CALM      30.11R FOG
$$

TXZ052-054-060>062-072-078-127-140-154-169-030300-
PERMIAN BASIN/CONCHO VALLEY/BIG COUNTRY/EDWARDS PLATEAU

CITY           SKY/WX    TMP DP  RH WIND       PRES   REMARKS
ABILENE        CLOUDY    37  35  92 SE6       30.13F WCI  32
BIG SPRING     CLOUDY    38  37  93 E3        30.12S
BRADY          FOG       36  36 100 E5        30.13S VSB 1/2 WCI  32
BROWNWOOD      CLOUDY    37  37 100 E3        30.17R FOG
JUNCTION       CLOUDY    40  40 100 E7        30.12S FOG
MIDLAND        FOG       37  36  96 E7        30.08F VSB 1/2 WCI  32
ODESSA         FOG       37  35  92 SE6       30.08S VSB 1/2 WCI  32
SAN ANGELO     CLOUDY    38  36  92 NE5       30.13S WCI  34
SONORA         CLOUDY    43  43 100 CALM      30.15R
SWEETWATER     CLOUDY    36  36 100 E5        30.14S VSB 1/4 WCI  32
WINK           CLOUDY    41  34  76 E5        30.07R
$$

TXZ055-058-074-075-080-082-030300-
FAR WEST/SOUTHWEST MOUNTAINS/TRANS PECOS

CITY           SKY/WX    TMP DP  RH WIND       PRES   REMARKS
ALPINE         MOCLDY    46  40  80 NE5       30.11R
DRYDEN           N/A     47  40  76 SE3       30.08R
EL PASO        CLOUDY    55  51  86 NW6       29.96F
FORT STOCKTON  CLOUDY    41  38  89 NE8       30.06R
MARFA          MOCLDY    55  34  44 N8        30.05R
PECOS          CLOUDY    42  37  81 CALM      30.09R
PRESIDIO       FAIR      63  39  41 NE10G17   29.95R
$$

TXZ014-016-019-021>030-083-030300
TEXAS TECH WEST TEXAS MESONET/TEXAS PANHANDLE/NORTHERN SOUTH PLAINS

CITY           SKY/WX    TMP DP  RH WIND       PRES   REMARKS
ABERNATHY 5ENE   N/A     32  32  99 S12       30.05S WCI  23
AMARILLO 9NNE    N/A     34  31  90 S16       29.97F WCI  23
AMARILLO 7SSE    N/A     32  31  96 S15       29.98F WCI  22
AMHERST 1NE      N/A     32  32  99 S9        30.03S WCI  24
BOOTLEG 11WNW    N/A     33  32  97 S16       29.98R WCI  22
CANADIAN 6E      N/A     37  29  72 S14       29.97S WCI  28
CAPROCK CYN SP   N/A     36  33  92 S9        30.06R WCI  29
CHILDRESS 2NNE   N/A     38  32  79 S10       30.08R WCI  31
CLARENDON 2WSW   N/A     37  32  82 S12       30.03R WCI  29
CLAUDE 12SW      N/A     32  31  96 S14       29.99F WCI  22
DIMMITT 2NE      N/A     31  31  99 S14       30.00S WCI  21
FLOYDADA 2NNE    N/A     32  32  99 S10       30.04S WCI  23
FRIONA 2NE       N/A     33  32  97 S17       29.99F WCI  22
GOODLETT 3W      N/A     39  32  75 SE12      30.09F WCI  32
HART 3N          N/A     31  31  99 S15       30.02R WCI  21
HEREFORD 2NW     N/A     33  32  98 S16       29.97F WCI  22
MCLEAN 1E        N/A     35  31  84 S17       29.99F WCI  25
MEMPHIS 1NE      N/A     39  32  76 S10       30.06R WCI  33
MULESHOE 2SSW    N/A     33  33  98 S12       30.01F WCI  25
OLTON 6S         N/A     32  31  97 S13       30.05R WCI  23
PALO DURO SP     N/A     33  31  92 S12       30.01F WCI  24
PAMPA 2E         N/A     36  32  87 S17       29.97F WCI  25
PLAINVIEW 1S     N/A     32  32  99 S10       30.02S WCI  24
SILVERTON 7ESE   N/A     33  32  94 S12       30.03S WCI  24
TULIA 2ENE       N/A     31  31  99 S13       30.02R WCI  22
TURKEY 2WSW      N/A     37  34  88 S12       30.05R WCI  29
UMBARGER 3NNE    N/A     32  31  97 S14       29.98F WCI  22
$$

TXZ033>036-039>041-045>048-030300
TEXAS TECH WEST TEXAS MESONET/SOUTH PLAINS

CITY           SKY/WX    TMP DP  RH WIND       PRES   REMARKS
AIKEN 3WSW       N/A     32  32 100 S13       30.04S WCI  22
ANDREWS 2NE      N/A     36  34  95 SE5       30.08R WCI  32
ANTON 6SSW       N/A     33  32  99 S14       30.03S WCI  23
BROWNFIELD 2S    N/A     32  32  99 S10       30.05F WCI  24
DENVR CTY 7WNW   N/A     33  33  99 S10       30.05R WCI  25
GAIL 2ESE        N/A     34  33  96 S5        30.11R WCI  30
LAMESA 2SE       N/A     34  33  99 S7        30.09S WCI  27
LEVELLAND 4S     N/A     33  31  95 S13       30.03F WCI  23
LUBBOCK 3WNW     N/A     34  33  99 S10       30.04F WCI  26
MORTON 1ENE      N/A     33  32  99 S13       30.03R WCI  23
ODONNELL 1N      N/A     32  32  99 S6        30.09R WCI  27
PLAINS 3N        N/A     33  33  99 S12       30.04R WCI  25
RALLS 1SE        N/A     32  32  99 S8        30.07S WCI  25
REESE CENTER     N/A     32  32  99 S14       30.03F WCI  22
SEAGRAVES 1SW    N/A     34  33  99 S10       30.06R WCI  26
SEMINOLE 2NNE    N/A     35  34  98 S8        30.06S WCI  28
SLATON 2NE       N/A     33  33  99 S9        30.07F WCI  25
SNYDER 3E        N/A     34  34  99 SE3       30.10R
SUNDOWN 8SW      N/A     33  33  99 S15       30.04R WCI  23
TAHOKA 3NNE      N/A     33  33 100 S9        30.05F WCI  26
WOLFFORTH 6SSW   N/A     34  33  99 S10       30.05F WCI  26
$$

TXZ031-032-036>038-042>044-030300-
TEXAS TECH WEST TEXAS MESONET/ROLLING PLAINS

CITY           SKY/WX    TMP DP  RH WIND       PRES   REMARKS
ASPERMONT 3NE    N/A     37  36  96 S3        30.13R
FLUVANNA 3WNW    N/A     33  33  98 S6        30.09R WCI  28
GRAHAM 5SSW      N/A     33  32  98 S5        30.08F WCI  28
GUTHRIE 10WSW    N/A     37  33  87 S9        30.10S WCI  30
HASKELL 1NW      N/A     37  35  92 SE5       30.14R WCI  33
JAYTON 1SSE      N/A     35  34  96 S3        30.12R
KNOX CITY 3NW    N/A     38  35  89 SE7       30.15R WCI  32
LK A HENRY 1NW   N/A     35  34  95 S5        30.11R WCI  31
NORTHFIELD 1S    N/A     38  34  84 S8        30.08R WCI  32
ODELL 4ENE       N/A     37  33  84 SE7       30.13F WCI  32
PADUCAH 10SW     N/A     38  33  84 S8        30.10R WCI  32
POST 1NE         N/A     34  34  98 S3        30.10S
RRING SPRGS 3N   N/A     35  34  97 S12       30.08R WCI  26
SEYMOUR 3NW      N/A     37  34  90 SE6       30.14F WCI  32
SPUR 1W          N/A     35  33  90 SW6       30.10R WCI  30
WEINERT 2NNE     N/A     37  34  89 SE7       30.15R WCI  32
WHITE RVR 6NE    N/A     33  32  96 S7        30.08R WCI  27
$$

TXZ052-054-060>062-072-078-127-140-154-169-030300-
TEXAS TECH WEST TEXAS MESONET/PERMIAN BASIN/
CONCHO VALLEY/BIG COUNTRY/EDWARDS PLATEAU

CITY           SKY/WX    TMP DP  RH WIND       PRES   REMARKS
COYANOSA 2N      N/A     42  36  78 NE3       30.09R
JUNCTION 1SSW    N/A     40  39  99 NE2       30.14S
MERTZON 3NNE     N/A     36  35  96 E3        30.13S
SAN ANGELO 7NW   N/A     38  35  90 E2        30.13S
STRLNG CT 4WSW   N/A     37  36  96 E3        30.13R
ST LAWRNCE 5SW   N/A     37  38 100 E7        30.10R WCI  31
SWEETWATR 11SW   N/A     35  35 100 SE3       30.11F
WALL 1E          N/A     37  35  93 NE3       30.13S
$$

TXZ055-058-074-075-080-082-030300-
TEXAS TECH WEST TEXAS MESONET/FAR WEST/SOUTHWEST MOUNTAINS/TRANS PECOS

CITY           SKY/WX    TMP DP  RH WIND       PRES   REMARKS
$$


USA.gov is the U.S. government's official web portal to all federal, state and local government web resources and services.